Miscellaneous Local Product
Issued by NWS Hastings, NE

Home | Current Version | Previous Version | Graphics & Text | Print | Product List | Glossary On
Versions: 1 2 3 4 5 6 7 8 9 10 11 12 13 14 15 16 17 18 19 20 21 22 23 24 25 26 27 28 29 30 31 32 33 34 35 36 37 38 39 40 41 42 43 44 45 46 47 48 49 50
304
AXUS43 KGID 272102
MISGRI

GID CWA HOURLY WEATHER ROUNDUP
NATIONAL WEATHER SERVICE HASTINGS NE
400 PM CDT TUE JUN 27 2017

NOTE: "FAIR" INDICATES FEW OR NO CLOUDS BELOW 12,000 FEET WITH NO
SIGNIFICANT WEATHER AND/OR OBSTRUCTIONS TO VISIBILITY.

...SOUTH CENTRAL NEBRASKA...

CITY           SKY/WX    TMP DP  RH WIND       PRES   REMARKS
GRAND ISLAND   PTSUNNY   80  66  62 SE21G29   29.84F
HASTINGS       MOSUNNY   83  65  54 SE22G29   29.85F
KEARNEY        SUNNY     84  64  51 S23G30    29.81F
ORD            MOSUNNY   81  62  52 S21G32    29.78F
YORK           CLOUDY    81  66  61 S18G25    29.85F
AURORA         CLOUDY    83  64  53 S20G26    29.85F
LEXINGTON      SUNNY     85  65  50 S22G28    29.78F
HOLDREGE       SUNNY     86  64  47 SE21G28   29.79F
HEBRON         PTSUNNY   83  67  59 S17G25    29.87F

...NEBRASKA PANHANDLE...

CITY           SKY/WX    TMP DP  RH WIND       PRES   REMARKS
CHADRON        SUNNY     94  46  19 W10       29.64F HX  90
ALLIANCE       SUNNY     90  53  28 SE14      29.70F
SCOTTSBLUFF    TSTM      83  62  49 SE10      29.73R
SIDNEY         CLOUDY    91  52  26 SE10      29.76F

...WESTERN AND NORTH CENTRAL NEBRASKA...

CITY           SKY/WX    TMP DP  RH WIND       PRES   REMARKS
VALENTINE      CLOUDY    89  57  33 S23G36    29.70R
AINSWORTH      SUNNY     85  62  46 S28G35    29.71F
ONEILL         SUNNY     84  62  47 S28G36    29.77F
BROKEN BOW     SUNNY     82  64  54 S28G33    29.78F
IMPERIAL       SUNNY     94  57  28 SE20G26   29.74F HX  92
NORTH PLATTE   SUNNY     79  63  57 S12G26    29.77F
MCCOOK         SUNNY     94  61  33 S18G29    29.74F HX  94

...EASTERN NEBRASKA...

CITY           SKY/WX    TMP DP  RH WIND       PRES   REMARKS
NORFOLK        SUNNY     81  61  50 S24G37    29.82F
SO SIOUX CITY  SUNNY     81  59  47 S17G28    29.86F
TEKAMAH        SUNNY     82  58  43 SE23G29   29.88F
COLUMBUS       SUNNY     82  64  54 SE17G23   29.84F
ALBION         MOSUNNY   83  62  49 S22G28    29.82F
OMAHA EPPLEY   PTSUNNY   82  61  48 S23       29.90F
OFFUTT AFB     SUNNY     80  62  54 SE16G25   29.90F
MILLARD        SUNNY     81  66  58 S16       29.90F
LINCOLN        MOSUNNY   83  65  54 SE21G29   29.88F
NEBRASKA CITY  PTSUNNY   78  66  66 SE17      29.93F
BEATRICE       MOSUNNY   81  67  63 SE17G26   29.89F
FALLS CITY     PTSUNNY   77  64  64 SE15      29.93F

...NORTHERN KANSAS...

CITY           SKY/WX    TMP DP  RH WIND       PRES   REMARKS
GOODLAND       SUNNY     94  54  25 S20G31    29.76F HX  92
HILL CITY      SUNNY     96  58  27 S20G29    29.77F HX  95
NORTON         CLEAR     95  46  18 S17G25    29.75F HX  91
PHILLIPSBURG   SUNNY     97  55  24 SE17G28   29.77F HX  95
SMITH CENTER   SUNNY     91  64  40 SE18G26   29.80F HX  93
HAYS           SUNNY     96  60  30 S20G35    29.79F HX  96
RUSSELL        MOSUNNY   98  58  26 S24G36    29.80F HX  97
CONCORDIA      SUNNY     84  69  60 SE18      29.86F
SALINA         PTSUNNY   93  67  42 SE23G30   29.84F HX  96
TOPEKA         CLOUDY    79  68  69 S16G24    29.96F



USA.gov is the U.S. government's official web portal to all federal, state and local government web resources and services.